GFSWCAN_925_thetae_276.txt.gz
Theta_e
289 289 289 289 289 290 291 289 288 288 288 289 289 289 289 289 289 289 290 291 290 289 288 291 293 294 294 295 300 295 297 294 295 302 304 300 294 290 290 291 293 294 292 286 279 285 295 292 292 297 299 295 294 291
290 290 290 289 290 290 290 290 288 288 288 289 289 289 289 290 289 289 290 291 291 291 290 291 291 291 291 293 294 295 295 292 296 294 293 290 296 285 290 296 291 297 293 292 292 295 295 292 294 293 293 293 296 296
290 291 290 290 290 290 290 290 289 288 288 289 289 289 290 290 290 289 289 290 290 291 290 288 289 291 291 291 296 295 291 293 294 292 292 291 292 290 291 290 292 290 290 293 293 298 293 293 293 293 292 293 293 292
290 289 289 290 290 290 290 290 290 289 288 289 289 289 290 290 290 290 289 290 290 289 289 286 291 292 292 292 294 294 294 292 290 289 288 296 292 292 293 294 294 292 292 291 292 295 296 296 293 293 294 292 291 291
288 287 287 288 290 290 290 290 290 289 288 289 289 288 288 290 290 290 290 290 290 289 290 286 289 291 293 294 295 296 295 294 293 296 295 296 291 291 285 287 287 289 293 296 300 297 300 302 299 295 293 293 293 292
287 287 287 287 288 290 290 290 290 288 288 289 288 288 289 289 289 289 290 290 289 289 289 286 287 289 291 293 295 294 293 294 295 292 292 288 289 295 294 290 292 291 290 293 301 297 295 296 293 294 291 292 292 290
287 288 289 289 289 288 290 290 289 288 289 289 288 289 290 289 289 289 285 289 289 290 290 286 290 290 291 293 293 293 292 295 297 297 299 291 290 292 297 299 298 294 292 292 291 291 295 295 295 295 290 289 284 284
288 289 290 290 290 289 290 290 289 288 289 289 289 289 289 290 289 289 288 289 290 290 290 285 290 286 290 294 294 292 294 295 295 297 294 295 287 287 297 290 296 299 298 295 294 291 298 296 288 294 284 281 285 288
290 291 292 292 290 289 290 290 289 288 288 289 288 289 288 289 288 287 288 289 289 289 289 283 290 292 290 291 291 291 295 299 291 296 296 295 290 299 295 293 293 296 294 298 285 285 284 287 293 293 286 279 285 290
291 292 292 292 288 289 290 289 288 288 288 288 287 284 277 285 288 288 289 290 291 291 282 280 284 291 291 291 292 288 288 292 297 293 289 296 290 284 285 289 296 291 294 288 290 295 283 289 290 292 293 291 290 290
290 289 289 289 289 290 290 288 288 288 287 285 274 277 285 287 286 285 290 292 293 292 283 279 286 290 289 293 292 291 297 295 299 293 292 291 292 288 290 293 296 288 292 294 289 294 290 296 296 295 295 292 285 287
290 289 289 289 290 290 288 288 288 286 284 285 283 286 285 280 281 285 288 290 292 291 285 284 287 288 289 289 293 292 296 293 299 285 288 296 290 290 287 292 295 289 284 287 281 287 284 282 283 287 288 288 287 288
289 289 289 289 290 289 288 288 287 285 285 285 278 276 277 279 284 284 289 290 292 287 285 288 291 288 287 289 290 291 295 293 280 290 289 288 286 282 284 290 286 272 272 270 272 270 269 270 271 270 276 278 281 282
288 289 290 290 290 288 287 287 287 285 285 275 274 277 277 281 283 283 286 287 287 285 287 289 288 290 286 288 291 291 279 279 287 287 290 287 286 288 277 272 276 276 270 269 269 267 267 267 269 269 271 272 273 275
288 290 289 289 289 288 287 288 285 285 282 275 276 277 273 275 277 280 280 282 287 286 291 291 288 289 282 289 282 278 286 286 285 289 288 286 277 275 275 272 271 271 269 270 266 266 268 266 267 268 272 272 272 273
287 287 288 288 288 288 287 286 285 285 273 273 274 279 270 276 281 282 276 283 280 288 287 292 290 294 289 287 291 288 288 293 291 282 279 273 274 271 270 268 267 265 264 264 263 263 263 266 267 267 269 272 271 272
287 288 288 288 288 287 285 285 285 270 273 274 274 267 272 273 279 277 272 281 282 282 285 289 294 291 284 290 292 288 288 288 281 277 269 269 271 270 266 265 265 264 264 263 262 264 264 269 271 268 269 269 271 273
287 287 288 287 286 285 285 285 275 278 280 279 279 279 270 272 271 273 273 278 282 280 278 285 285 290 293 293 290 280 276 273 268 268 270 267 266 264 263 265 264 263 264 262 265 267 269 268 269 268 267 270 271 271
286 287 287 286 285 285 277 279 280 278 277 268 271 270 269 272 270 271 272 275 276 278 279 282 290 290 286 275 272 278 268 269 272 272 268 264 263 264 266 266 266 266 264 264 266 266 268 270 268 269 270 270 270 270
286 286 286 285 284 282 279 282 283 282 283 281 273 274 272 274 271 269 271 274 276 276 281 279 278 276 273 269 269 269 270 269 267 269 269 269 264 264 264 263 265 268 270 271 271 271 271 271 270 270 270 270 270 269
286 285 285 286 286 285 278 280 285 285 285 284 283 285 280 280 280 281 276 275 281 268 275 266 264 265 266 264 266 264 266 265 267 266 268 268 266 266 266 271 271 271 270 270 271 270 271 271 270 269 269 269 269 269
286 286 286 287 285 284 283 282 284 284 284 285 284 285 285 280 279 280 278 277 273 266 264 263 263 263 266 266 266 268 267 266 268 267 269 268 266 266 266 268 269 268 268 269 270 271 270 270 269 268 268 267 266 266
287 287 286 286 286 285 284 282 285 285 286 286 286 287 288 287 280 278 274 269 266 265 262 261 262 268 267 271 269 268 269 267 264 265 266 267 269 269 269 269 269 270 270 270 270 269 269 268 268 267 266 266 265 264
284 283 284 284 285 284 283 284 283 284 284 285 288 290 289 284 281 277 273 269 266 265 265 265 266 271 273 271 266 268 267 269 269 269 269 271 270 269 269 268 268 268 269 268 268 267 266 266 266 265 265 264 264 263
283 281 279 283 280 280 283 284 284 284 285 284 287 287 285 284 281 278 277 271 269 267 266 266 268 270 271 272 271 270 269 269 269 269 268 269 271 270 269 268 266 266 268 267 266 265 264 264 263 263 263 262 262 261
283 275 277 277 275 277 277 279 279 280 282 286 282 279 282 281 279 277 271 266 266 265 264 264 264 268 269 269 269 268 268 269 269 268 266 266 267 269 269 268 268 265 266 265 265 264 263 263 262 262 261 261 260 259
280 275 272 272 270 269 273 272 273 276 274 276 272 272 284 280 276 269 266 264 264 263 263 263 263 265 266 267 269 268 267 267 267 266 265 265 265 266 265 265 264 263 265 265 264 263 262 261 260 259 258 258 258 257
269 269 273 271 272 270 268 268 267 270 269 266 268 267 272 271 270 263 263 263 262 262 263 265 265 265 267 267 268 269 269 267 267 267 266 265 265 264 264 263 264 265 264 264 264 263 262 261 260 258 257 256 256 258
271 268 268 275 271 267 264 263 267 266 264 264 268 266 263 262 261 261 261 262 263 264 265 266 267 268 267 266 266 267 268 269 269 268 267 266 265 263 264 264 263 264 264 264 264 265 264 262 261 260 259 258 257 258
270 266 271 273 272 269 266 264 266 263 262 261 261 262 263 262 262 262 262 263 264 265 265 265 265 267 266 267 266 265 266 268 268 266 265 263 262 263 264 263 263 263 263 263 261 260 261 260 259 259 259 258 258 258
263 265 269 272 271 270 268 266 264 263 264 265 264 265 264 263 262 263 263 263 264 264 264 265 264 264 264 264 264 265 263 263 264 265 264 264 264 264 264 264 264 265 264 263 262 261 261 260 259 258 258 257 257 258
265 269 272 273 271 268 267 269 270 271 268 268 267 264 264 267 266 263 263 264 263 263 263 262 264 264 264 264 264 264 264 264 265 266 266 265 265 265 265 265 264 264 264 263 262 261 262 260 259 258 257 257 257 258
270 274 275 272 270 271 270 270 272 272 271 270 268 267 267 268 266 263 263 263 262 262 262 262 263 263 263 263 263 263 264 265 266 266 267 266 266 265 264 264 264 264 264 263 262 261 260 260 258 257 258 258 258 259

GFSWCAN_925_thetae_279.txt.gz
Theta_e
290 290 290 290 291 291 291 291 290 291 290 289 289 289 289 290 289 290 289 289 289 289 291 290 290 289 291 292 292 294 296 295 296 304 303 301 290 289 290 292 295 295 294 289 286 288 297 292 291 297 299 295 293 292
289 289 289 290 290 291 290 291 291 290 291 291 289 289 289 289 290 290 289 289 289 290 290 290 291 291 291 292 292 293 295 293 296 300 297 294 296 288 291 296 291 298 294 293 292 295 295 291 295 293 292 294 295 294
289 289 289 289 289 289 289 289 290 291 291 290 290 289 289 289 289 290 290 289 289 289 289 290 289 291 290 291 291 291 292 294 295 291 292 295 295 290 291 291 293 291 290 293 293 297 293 291 292 292 292 293 293 292
289 289 288 288 288 289 288 288 289 290 291 291 290 290 289 289 289 289 290 290 289 288 289 289 288 288 290 290 292 293 292 292 291 292 292 293 295 292 293 294 294 292 291 290 291 294 294 294 292 293 293 292 292 291
289 289 289 289 288 288 289 289 289 290 291 290 290 289 289 289 289 290 290 290 289 289 289 287 284 289 289 291 291 292 293 293 294 296 296 297 291 292 285 286 287 289 292 296 300 298 300 302 299 296 294 294 293 292
290 289 287 287 288 288 289 290 289 289 290 290 289 289 289 289 289 289 289 289 289 289 289 285 281 283 289 292 292 292 293 294 294 296 296 293 290 292 290 291 292 290 290 293 299 297 295 295 292 293 293 293 292 290
288 288 289 290 290 290 290 290 290 290 290 290 289 289 289 290 289 285 284 288 289 290 289 286 280 281 287 291 293 294 294 295 295 297 297 295 291 293 295 294 298 293 292 292 291 292 295 293 296 294 291 290 285 284
289 289 290 291 291 291 291 291 291 290 290 289 289 289 289 289 289 288 288 290 290 289 288 287 281 282 289 291 293 294 295 295 295 299 295 294 290 289 297 290 295 297 294 292 292 291 297 292 287 290 285 282 284 288
289 290 290 289 292 293 292 291 290 290 290 289 289 289 287 288 288 288 289 289 289 289 289 277 280 282 289 288 292 292 295 297 293 297 295 296 292 300 295 294 290 295 296 298 288 285 283 286 292 292 291 278 283 290
289 290 289 290 293 292 290 290 290 289 288 288 287 283 276 286 287 288 288 288 289 289 288 283 275 281 289 291 292 293 293 297 297 295 291 296 293 283 285 291 295 297 295 289 291 294 283 288 291 292 291 291 289 291
290 290 289 289 290 290 290 290 289 289 288 286 273 275 284 286 286 285 283 289 290 289 285 280 286 285 287 291 293 292 294 292 294 288 291 291 291 289 290 290 295 291 293 292 294 294 286 287 289 292 293 287 285 283
289 289 289 289 290 290 289 289 288 286 285 283 282 285 284 277 277 282 285 287 290 285 284 284 284 287 287 287 293 291 292 293 291 280 287 293 290 289 292 296 298 289 291 290 279 281 277 276 275 277 276 277 276 278
289 289 289 289 290 289 289 288 286 283 284 284 276 274 277 276 282 286 287 288 289 288 286 285 290 289 285 288 292 290 292 293 280 291 288 288 286 283 286 283 279 270 270 272 272 268 267 267 269 265 269 270 271 270
289 290 290 289 289 289 288 287 284 284 284 273 272 276 276 278 282 286 287 288 287 283 283 288 286 290 291 291 292 292 277 281 292 287 291 287 282 277 274 269 274 274 268 268 268 265 265 264 265 268 269 270 267 267
289 289 289 289 289 288 288 286 284 284 280 273 274 276 274 277 275 278 281 282 285 286 289 286 286 286 288 286 283 281 287 287 289 291 285 281 276 270 271 269 268 268 266 266 264 264 264 263 263 265 270 270 270 269
288 288 288 288 288 288 287 285 285 284 271 271 275 276 269 274 278 277 278 283 284 287 288 292 292 292 291 287 289 294 289 290 287 276 276 273 273 269 267 266 265 263 263 263 262 262 262 263 263 264 270 269 269 269
287 288 288 288 288 286 285 284 284 272 268 272 273 263 275 271 278 273 274 282 282 287 288 289 293 288 283 286 296 291 284 278 273 273 268 267 267 267 265 264 265 264 264 262 262 264 264 269 269 268 268 267 270 271
287 288 288 288 286 285 285 284 274 276 275 267 276 274 267 271 273 272 271 277 282 283 285 287 284 293 293 290 295 285 278 271 268 267 268 266 265 265 263 265 263 262 262 262 265 268 268 267 268 267 267 270 270 270
287 287 288 287 285 284 277 278 278 276 276 268 267 266 265 271 270 269 269 280 280 280 280 284 288 287 285 281 282 279 275 271 272 272 271 265 263 263 265 266 267 265 266 264 266 266 267 268 268 269 269 269 269 269
286 287 287 287 285 282 278 279 281 280 281 279 268 272 271 272 268 264 270 279 275 278 284 281 277 276 278 276 273 271 269 269 268 271 270 269 266 265 264 262 262 267 269 270 270 270 269 269 269 268 268 268 268 267
287 286 285 286 285 284 276 277 280 282 281 282 281 282 278 278 282 281 281 273 280 267 280 270 269 270 270 267 266 264 265 264 265 268 266 266 265 264 264 268 270 269 269 268 268 268 268 268 267 266 266 266 266 265
287 286 285 286 285 284 283 281 283 284 284 283 283 284 280 276 282 275 272 270 266 266 263 265 265 265 268 267 265 266 264 264 264 265 266 265 264 264 265 265 267 267 267 268 268 268 268 267 267 266 266 265 264 264
286 287 286 286 285 285 283 282 284 284 285 286 285 284 283 278 272 271 269 263 261 262 261 262 263 264 263 268 267 267 267 265 262 263 266 266 268 267 267 267 269 268 268 268 268 267 266 266 266 265 265 264 263 263
284 283 284 283 284 284 281 283 283 284 284 285 286 288 282 276 275 270 268 261 260 259 262 263 261 264 266 265 264 263 267 267 266 267 268 269 268 268 267 266 267 267 267 266 266 265 265 264 264 264 263 263 262 261
282 279 278 280 279 279 280 281 283 284 285 285 286 285 283 280 274 271 269 264 261 261 263 264 265 267 266 266 264 266 269 269 267 267 266 268 269 268 267 266 265 265 266 265 264 264 263 262 262 261 260 260 259 258
281 273 275 273 273 275 275 278 280 279 280 283 279 276 280 282 281 275 269 264 264 263 263 262 262 265 267 268 267 266 267 269 268 267 265 265 266 268 268 268 266 264 265 264 264 263 262 261 260 259 258 257 257 256
279 273 270 268 267 267 272 273 273 276 275 273 270 272 281 279 275 268 266 264 264 263 263 263 263 265 267 268 267 267 266 266 266 265 264 264 264 265 265 264 263 262 264 264 263 262 260 259 258 256 256 257 257 257
270 268 271 267 266 266 269 270 270 269 268 266 268 268 272 270 269 264 263 263 262 262 264 265 265 266 267 267 268 267 266 266 266 265 265 264 263 263 262 262 263 264 264 265 264 264 262 260 259 258 257 256 256 258
270 266 266 271 268 267 265 266 268 266 263 264 268 267 265 263 262 261 262 262 264 265 266 267 267 267 266 266 266 267 268 269 269 268 266 265 264 261 262 262 263 264 264 264 262 262 262 261 260 259 258 258 258 259
268 264 269 269 269 268 267 266 267 264 264 262 262 263 263 263 263 262 262 263 264 265 265 265 266 267 267 266 265 264 265 267 268 267 266 264 261 261 262 263 262 262 261 261 260 259 260 260 260 260 259 259 259 259
264 263 268 268 269 269 267 265 264 264 264 264 264 265 264 263 263 263 263 263 264 264 265 265 265 265 265 264 265 265 263 263 265 266 264 262 262 263 263 263 263 263 263 263 262 262 262 261 260 259 259 258 259 260
264 268 272 272 270 267 267 268 268 270 269 269 268 265 265 266 265 263 263 263 263 263 262 262 263 263 263 263 263 264 263 264 265 265 265 264 264 263 263 263 264 264 264 264 263 262 261 261 259 259 258 258 259 260
269 270 271 272 272 272 270 268 270 270 271 271 269 268 267 268 265 263 263 263 262 262 261 261 261 262 262 263 263 263 264 264 264 265 265 265 264 264 264 264 264 264 264 263 262 261 261 260 259 259 259 260 260 260

GFSWCAN_925_thetae_285.txt.gz
Theta_e
290 290 290 290 291 291 291 291 291 290 290 291 291 290 290 292 291 292 291 290 290 291 290 290 290 290 290 290 290 292 292 295 295 296 301 304 307 303 303 302 299 301 303 304 306 307 309 296 295 303 304 298 298 298
290 290 289 290 290 290 291 290 291 290 290 290 290 290 291 291 290 291 291 290 290 291 291 289 289 289 289 290 291 292 292 294 295 296 295 295 301 300 305 304 297 304 304 304 305 306 300 296 299 297 296 298 297 297
289 288 289 290 290 290 290 290 291 290 291 290 290 290 290 290 290 291 291 290 290 291 291 290 290 288 289 289 290 291 291 292 293 293 293 294 295 300 305 304 300 298 298 300 299 304 299 297 297 296 296 297 297 297
288 289 290 290 290 290 290 290 290 290 290 290 290 290 290 290 291 291 291 290 290 291 290 291 290 289 289 289 289 290 290 290 292 293 293 293 295 296 300 298 302 300 296 299 299 298 299 299 298 299 299 297 296 296
289 290 290 290 289 290 290 291 291 290 290 290 290 290 290 290 290 290 291 291 290 290 290 290 289 288 289 289 289 290 291 292 292 293 293 293 294 296 296 295 298 297 299 301 304 302 305 305 302 299 298 298 297 297
289 290 289 289 289 290 291 291 291 291 291 291 290 290 290 290 290 290 290 289 289 290 291 290 291 288 288 290 291 291 292 292 293 293 293 293 293 295 296 298 303 297 296 300 303 302 301 300 299 298 299 299 298 297
289 288 290 290 290 290 291 291 293 293 291 291 291 290 290 290 290 290 290 290 289 290 290 290 290 288 288 289 290 291 291 293 292 293 293 294 294 296 296 297 296 296 297 297 297 296 299 296 301 299 296 296 293 292
288 290 290 290 291 291 291 292 292 291 291 291 291 290 289 290 289 289 288 289 289 290 290 290 290 288 289 290 290 292 292 292 292 293 294 294 295 296 297 297 297 297 297 298 296 295 299 295 293 293 291 289 290 291
289 290 290 290 291 291 291 291 291 291 291 291 290 290 289 288 287 289 288 289 289 289 290 289 289 288 289 291 290 292 292 291 293 293 294 295 295 297 298 297 297 301 299 299 297 296 291 291 294 293 292 287 289 292
290 290 290 291 291 291 291 291 291 291 290 289 288 288 287 286 287 287 288 288 289 289 288 289 291 291 290 290 291 292 293 293 293 295 295 295 296 296 295 296 298 298 298 296 296 297 290 291 293 295 291 291 291 290
290 290 289 290 290 290 290 289 289 288 287 286 287 286 283 285 286 287 287 288 288 288 288 288 289 290 289 290 291 292 292 293 291 292 294 297 299 297 297 296 296 297 297 297 296 292 293 295 293 291 289 288 283 279
290 290 289 290 290 289 288 287 286 285 284 284 285 284 284 286 286 286 286 286 288 289 288 289 288 288 290 291 291 292 291 292 291 295 297 297 299 296 292 296 296 290 290 288 286 288 284 284 279 277 276 275 273 272
289 290 289 289 289 288 288 284 282 283 283 283 283 282 285 283 286 287 287 288 287 287 289 288 289 289 290 290 291 291 290 292 290 294 299 301 291 284 278 278 282 278 281 284 280 277 276 275 271 271 272 270 271 272
288 288 289 289 289 288 286 284 283 283 283 284 282 279 283 283 286 288 288 288 288 288 287 287 288 291 291 290 291 289 290 286 292 297 300 294 280 276 275 275 275 276 275 276 275 273 272 272 270 269 269 269 270 270
288 288 288 289 289 288 285 284 284 283 283 284 282 282 280 282 282 284 284 283 284 286 287 287 286 290 291 291 291 290 288 289 296 299 293 282 276 274 274 273 272 273 272 273 273 272 270 270 271 269 269 270 270 271
287 286 288 288 289 288 286 285 284 283 277 281 281 282 279 280 284 284 284 284 285 286 287 288 292 293 292 293 289 290 292 295 292 285 281 278 276 273 271 271 270 269 271 271 270 271 270 269 270 270 270 270 270 270
287 286 287 288 288 286 285 285 283 277 280 281 284 275 280 282 284 285 284 284 284 285 290 289 293 293 289 293 292 292 291 285 281 281 278 274 272 271 269 270 269 269 270 270 269 269 269 270 271 271 271 270 270 269
287 286 286 287 287 287 284 283 279 278 281 282 282 283 276 280 284 284 284 283 283 287 289 289 286 291 291 290 289 283 281 278 278 276 275 272 271 270 270 271 269 270 269 269 270 270 271 272 272 271 271 270 270 269
288 288 287 287 287 285 285 282 281 283 283 280 278 276 277 280 280 279 279 280 280 283 284 287 289 287 285 281 279 277 276 274 274 274 274 272 270 269 270 270 270 269 269 270 270 270 268 268 269 270 269 268 267 267
288 287 287 287 287 284 284 284 280 283 283 283 277 279 280 283 278 279 280 283 283 285 282 283 281 278 276 274 272 272 272 272 272 274 276 273 270 270 270 271 271 271 271 270 269 269 268 268 267 266 266 266 266 265
285 286 287 287 285 284 285 284 283 284 285 284 283 282 285 281 283 284 283 278 281 276 279 274 274 273 271 271 270 269 270 269 270 271 272 274 270 271 270 270 270 270 271 270 269 267 267 266 266 265 265 264 264 264
285 287 287 286 287 285 285 284 285 285 285 286 284 284 285 284 283 282 277 276 273 270 269 270 271 270 270 270 268 268 267 267 268 269 268 268 272 271 270 270 270 269 269 268 267 267 266 265 265 264 264 263 262 262
284 286 286 286 286 286 285 283 284 284 285 286 284 285 284 283 279 276 272 270 269 266 265 266 266 266 267 268 268 268 267 268 269 269 269 269 268 269 268 268 268 268 267 267 266 266 265 265 265 264 263 262 261 260
283 281 285 286 286 286 283 284 285 285 285 286 286 285 282 281 278 278 275 270 267 265 265 265 266 269 269 269 269 269 268 268 269 268 269 269 268 267 267 267 266 266 266 266 265 264 264 263 263 262 261 260 259 259
283 279 279 283 279 281 283 283 284 285 285 286 287 284 282 280 279 276 275 269 267 266 264 265 267 268 269 270 270 269 268 268 269 268 266 268 267 266 266 265 265 265 265 265 264 263 262 261 260 259 259 258 258 258
281 274 276 276 277 278 279 280 280 279 280 282 279 276 278 280 277 277 270 266 265 265 264 264 264 266 268 268 268 268 267 267 267 267 265 265 267 269 268 268 267 264 264 264 263 261 259 259 258 258 258 258 258 258
279 275 272 269 271 272 274 274 274 276 277 276 273 275 278 277 275 270 265 264 264 263 262 262 263 264 266 268 267 266 265 265 265 264 263 262 263 265 266 266 264 262 263 263 262 261 259 258 258 258 258 258 258 258
269 269 272 271 271 270 272 272 272 271 270 268 269 270 272 270 270 264 264 263 263 263 263 264 265 265 266 267 266 265 264 264 264 263 263 262 261 262 262 262 262 263 264 263 263 262 261 261 260 259 259 259 259 260
270 267 268 272 271 270 268 268 268 267 265 266 270 269 266 264 263 263 263 263 264 264 266 266 266 266 266 267 267 267 266 267 269 269 267 266 264 260 261 262 263 263 263 263 263 263 262 262 261 261 260 259 259 259
269 265 270 271 271 270 269 267 267 265 264 265 264 264 265 264 263 262 263 263 264 265 265 266 267 268 268 267 266 265 265 267 269 269 268 265 261 259 260 260 260 261 261 261 260 260 262 261 261 260 260 259 260 260
265 267 271 272 273 272 269 267 266 266 265 267 267 267 266 265 264 263 262 263 264 265 266 265 265 265 266 267 266 266 265 264 266 267 268 264 262 262 262 262 262 263 263 263 262 262 261 260 260 260 260 260 260 260
267 270 273 275 274 269 268 270 270 271 270 270 268 266 265 267 266 264 262 263 263 263 262 263 263 262 262 262 263 264 265 263 264 266 266 264 263 262 263 263 263 264 264 263 262 261 261 261 261 260 260 260 260 260
270 272 272 273 274 273 271 271 272 272 273 272 271 270 268 269 267 264 262 262 261 261 260 260 260 260 261 261 262 263 264 264 265 265 265 264 264 264 264 264 264 264 264 263 262 262 262 262 261 261 260 260 260 260

GFSWCAN_925_thetae_291.txt.gz
Theta_e
291 290 290 291 291 290 290 291 291 291 291 291 291 291 291 292 292 292 292 291 290 290 290 288 288 287 286 286 285 282 285 283 284 286 290 292 291 291 294 297 297 299 300 299 299 301 302 296 296 304 303 295 298 298
290 289 290 290 289 290 291 291 291 291 291 291 291 291 291 291 291 292 291 290 290 290 287 289 289 288 289 288 285 280 285 281 285 285 289 289 289 289 292 293 297 301 297 296 301 302 299 294 298 296 295 295 296 297
289 290 290 289 290 291 291 290 292 291 292 292 292 292 292 291 291 291 291 290 289 289 288 287 287 289 289 289 289 283 281 286 287 286 287 290 290 290 284 294 295 294 294 296 299 299 299 297 295 294 294 296 296 295
289 289 289 290 290 290 291 292 292 292 292 292 292 292 293 292 292 291 291 290 289 288 287 286 287 288 288 289 289 289 287 287 283 282 283 284 285 289 290 292 291 292 293 295 293 296 296 297 295 296 295 294 295 295
289 289 290 291 290 291 291 292 292 292 292 293 294 294 292 292 292 291 290 290 290 289 288 285 286 289 289 288 288 288 288 286 280 281 284 284 287 288 287 288 289 292 292 294 299 296 295 296 294 294 294 294 293 294
288 289 291 289 291 291 291 292 292 292 292 293 293 292 292 291 291 290 285 289 290 289 289 288 284 281 288 289 288 287 287 286 287 287 285 285 287 288 286 286 290 291 292 293 296 294 293 292 292 293 295 295 293 293
289 290 289 291 291 291 291 291 292 292 292 292 291 291 291 290 289 285 285 289 289 289 288 284 280 280 284 283 278 280 283 285 287 288 286 286 286 289 280 289 289 290 291 291 290 291 291 292 295 292 293 292 288 287
289 290 290 290 291 290 290 291 291 291 291 291 291 290 290 289 288 288 288 289 289 288 281 279 280 279 283 285 286 279 284 287 285 284 277 283 281 285 288 288 288 290 290 290 290 291 291 292 290 288 284 284 287 288
290 289 290 290 291 290 290 289 289 290 290 290 289 288 288 287 286 287 288 288 289 286 281 278 279 279 282 281 281 279 283 285 279 287 285 287 289 289 287 287 286 289 289 289 290 285 284 286 291 287 285 282 287 287
289 289 289 290 291 289 288 289 288 288 288 287 285 285 278 284 286 287 286 284 286 280 282 278 276 285 285 281 284 286 287 289 289 286 283 288 288 288 288 284 286 289 287 284 287 291 289 283 284 288 288 286 285 280
288 289 289 290 290 289 288 286 285 283 285 284 275 273 285 285 285 273 274 276 273 275 272 283 281 283 286 286 287 287 285 278 288 282 286 280 279 288 287 287 288 287 286 288 288 290 288 290 290 282 277 270 272 270
288 289 289 290 290 289 288 286 283 282 282 283 283 284 285 276 272 273 269 271 272 277 275 279 280 281 279 283 287 287 285 279 281 273 279 277 286 275 271 271 273 271 271 273 282 286 277 271 270 272 269 267 266 269
288 289 289 289 289 289 287 285 284 284 283 282 276 270 272 271 274 273 272 274 274 273 273 276 278 279 276 282 286 288 286 283 272 275 279 283 277 272 269 266 268 267 268 271 270 270 269 266 268 267 266 266 269 268
289 288 288 289 288 289 287 285 285 284 282 273 271 273 272 269 268 269 272 273 276 274 274 275 276 280 281 285 287 287 282 280 278 279 281 276 274 272 269 266 264 267 268 269 267 265 266 266 265 267 267 269 268 266
288 289 288 288 288 289 288 287 285 284 282 275 271 273 269 269 265 270 269 272 274 274 278 279 282 285 285 287 282 281 283 284 284 286 282 278 271 268 268 266 265 266 266 263 263 264 265 265 267 266 266 267 267 266
288 288 287 287 289 289 288 286 285 283 277 275 271 273 263 268 270 269 269 273 274 277 280 283 283 283 284 284 283 285 285 288 283 279 278 274 272 269 266 265 265 264 263 263 263 264 266 266 266 266 265 265 265 264
287 288 286 288 288 288 287 285 283 273 274 273 274 261 267 266 275 271 269 275 280 279 282 283 287 288 288 289 287 280 280 278 275 276 275 272 270 268 266 264 265 264 265 266 267 267 266 267 267 266 265 264 264 264
287 287 287 288 287 287 286 283 279 271 275 271 274 270 264 266 269 271 272 276 278 280 282 286 283 284 286 284 282 276 275 273 273 273 273 271 269 267 266 265 266 266 266 266 266 267 267 267 266 266 265 264 264 263
286 287 287 288 287 287 281 281 281 278 277 269 267 266 265 267 269 273 273 273 274 278 282 283 285 281 279 276 273 272 271 271 270 271 272 270 269 268 269 268 268 266 266 265 265 265 264 265 265 265 264 264 263 262
286 287 287 287 287 284 283 280 280 276 276 274 266 268 268 270 270 269 271 276 276 279 281 280 277 274 273 272 271 270 270 270 269 270 272 270 270 270 270 270 268 267 267 266 266 265 265 264 263 263 262 262 262 261
286 286 285 285 287 285 283 276 273 275 272 275 267 271 273 269 271 273 274 272 274 271 279 273 272 270 269 269 269 268 268 268 268 268 270 271 270 270 269 268 267 266 265 265 264 263 263 262 262 261 261 260 260 260
284 284 285 286 284 284 282 280 277 273 275 271 274 268 272 273 270 271 271 272 269 269 268 268 267 266 267 268 268 269 268 268 269 269 269 269 269 268 267 267 266 265 265 264 264 263 263 262 261 261 260 260 260 260
283 284 284 286 286 282 283 280 280 274 280 273 272 274 273 271 268 269 273 266 264 263 264 264 265 266 266 268 269 268 268 268 268 267 266 267 266 266 266 265 265 265 264 264 264 263 262 262 261 261 260 260 259 259
282 280 280 285 285 284 279 279 277 276 275 275 274 273 273 269 267 272 274 262 261 263 264 264 265 267 268 269 268 267 267 268 267 266 266 265 265 265 264 264 264 264 264 263 263 262 261 261 260 260 259 259 258 257
278 277 277 281 278 281 281 281 279 280 276 270 274 272 271 266 270 268 272 263 258 260 262 262 263 265 265 265 266 266 266 266 265 265 264 265 264 264 264 264 264 264 264 263 262 260 259 260 260 259 259 258 258 258
279 274 275 276 277 279 280 282 282 279 276 275 271 265 265 266 271 271 263 258 257 257 258 257 260 262 264 265 265 264 264 265 265 262 262 264 266 266 266 266 265 263 263 262 261 260 259 259 259 259 258 259 260 260
277 273 271 270 271 273 275 275 275 277 277 272 265 267 267 273 269 263 259 256 257 262 262 262 262 261 262 264 264 263 262 264 263 261 261 262 264 266 266 264 262 261 263 264 263 262 260 259 259 259 259 259 260 260
269 269 273 270 271 270 273 273 274 276 271 264 262 269 270 268 265 259 256 263 263 263 264 265 265 265 265 265 264 263 263 263 263 263 262 262 262 263 263 263 262 263 263 264 264 263 262 262 261 261 261 259 259 260
270 268 269 271 270 269 268 269 269 266 263 259 262 261 259 255 252 252 262 262 263 264 265 265 266 266 265 266 265 265 265 265 266 267 266 264 261 259 261 262 263 263 263 262 262 262 262 262 262 262 261 261 261 261
269 267 271 271 269 266 264 263 262 261 262 257 255 255 255 255 263 262 262 263 263 263 265 265 266 266 266 266 266 265 265 266 268 268 263 260 258 259 261 262 263 262 262 262 261 261 262 262 261 261 261 260 261 262
266 267 270 272 271 268 265 263 263 262 259 258 255 256 256 254 263 263 262 263 263 265 265 264 265 265 266 266 267 267 265 265 267 268 268 264 262 262 263 263 264 264 264 263 263 262 262 262 262 261 261 261 261 261
267 270 272 274 270 268 267 267 265 263 262 261 260 256 257 257 259 257 262 263 263 263 262 263 263 262 262 263 264 264 265 265 265 266 265 264 263 263 264 264 264 264 263 263 263 262 263 263 262 262 261 260 260 260
269 271 272 272 270 269 269 270 269 270 268 265 263 261 259 260 263 259 261 261 261 261 261 261 260 261 262 262 262 262 263 264 264 264 264 265 265 264 264 264 263 263 263 263 263 263 263 263 262 262 261 261 261 261